DW8722 Weather Reports


time (UTC)temp
F
wind
direction
speed
knots
gust
knots
rain 1hr
in
rain 24hr
in
rain mn
in
humidity
%
barometer
mb
20260505033507 72 183 7.0 13.9 0.00 0.00 0.00 75 1005.9
20260505032517 72 190 7.0 13.9 0.00 0.00 0.00 74 1005.9
20260505031516 72 119 7.0 13.0 0.00 0.00 0.00 74 1005.8
20260505030538 72 174 6.1 13.0 0.00 0.00 0.00 74 1005.8
20260505025601 73 175 7.0 13.0 0.00 0.00 0.00 73 1005.8
20260505024545 73 175 6.1 13.0 0.00 0.00 0.00 73 1005.7
20260505023603 73 198 6.1 11.3 0.00 0.00 0.00 72 1005.6
20260505022619 73 162 5.2 13.9 0.00 0.00 0.00 72 1005.7
20260505021617 74 168 6.1 13.9 0.00 0.00 0.00 71 1005.6
20260505020623 74 195 6.1 13.9 0.00 0.00 0.00 70 1005.6
20260505015609 74 190 9.6 19.1 0.00 0.00 0.00 70 1005.4
20260505014553 74 165 10.4 21.7 0.00 0.00 0.00 69 1005.3
20260505011244 75 167 6.1 11.3 0.00 0.00 0.00 69 1005.5
20260505010303 75 186 7.0 14.8 0.00 0.00 0.00 68 1005.5
20260505005232 76 172 7.0 15.6 0.00 0.00 0.00 68 1005.5
20260505004239 76 186 7.0 15.6 0.00 0.00 0.00 67 1005.6
20260505003226 76 192 8.7 22.6 0.00 0.00 0.00 65 1005.6
20260505002206 77 193 8.7 22.6 0.00 0.00 0.00 65 1005.5
20260505001225 77 173 8.7 16.5 0.00 0.00 0.00 64 1005.6
20260505000218 77 191 8.7 20.0 0.00 0.00 0.00 63 1005.4
20260504234059 78 194 9.6 23.5 0.00 0.00 0.00 62 1005.7
20260504233058 78 206 11.3 23.5 0.00 0.00 0.00 61 1005.8
20260504225842 80 200 10.4 22.6 0.00 0.00 0.00 59 1006.4
20260504224810 80 183 13.0 26.1 0.00 0.00 0.00 58 1006.3
20260504223803 80 180 12.2 26.1 0.00 0.00 0.00 59 1006.3
20260504222821 80 170 11.3 22.6 0.00 0.00 0.00 58 1006.4
20260504221805 79 133 13.9 25.2 0.00 0.00 0.00 58 1006.5
20260504220809 80 167 13.9 25.2 0.00 0.00 0.00 56 1006.7
20260504215833 80 192 11.3 21.7 0.00 0.00 0.00 55 1006.7
20260504214815 80 173 11.3 21.7 0.00 0.00 0.00 56 1006.9
20260504213811 80 202 10.4 25.2 0.00 0.00 0.00 55 1006.9
20260504212744 80 178 13.0 25.2 0.00 0.00 0.00 54 1007.0
20260504210633 80 188 12.2 22.6 0.00 0.00 0.00 53 1007.5
20260504205624 80 147 10.4 21.7 0.00 0.00 0.00 55 1007.6
20260504204601 80 179 10.4 20.9 0.00 0.00 0.00 55 1007.8
20260504203554 80 146 11.3 20.9 0.00 0.00 0.00 54 1008.0
20260504202604 80 187 11.3 24.3 0.00 0.00 0.00 53 1008.2
20260504201546 79 172 13.0 24.3 0.00 0.00 0.00 53 1008.4
20260504195351 79 178 12.2 20.9 0.00 0.00 0.00 52 1008.9
20260504193211 79 185 11.3 23.5 0.00 0.00 0.00 50 1009.3
20260504192212 79 192 10.4 23.5 0.00 0.00 0.00 52 1009.4
20260504190013 78 180 11.3 24.3 0.00 0.00 0.00 53 1009.8
20260504185000 78 167 11.3 24.3 0.00 0.00 0.00 51 1009.7
20260504184025 78 182 9.6 20.0 0.00 0.00 0.00 52 1009.8
20260504183041 77 207 10.4 20.9 0.00 0.00 0.00 52 1010.0
20260504182045 77 221 11.3 21.7 0.00 0.00 0.00 53 1010.2
20260504181040 76 207 10.4 21.7 0.00 0.00 0.00 57 1010.4
20260504180031 76 173 13.0 23.5 0.00 0.00 0.00 54 1010.5
20260504175022 76 210 12.2 23.5 0.00 0.00 0.00 54 1010.7
20260504172911 74 204 13.0 25.2 0.00 0.00 0.00 56 1011.2
20260504171918 74 218 13.0 25.2 0.00 0.00 0.00 56 1011.4
20260504170919 74 202 13.0 25.2 0.00 0.00 0.00 56 1011.8
20260504150602 69 185 12.2 24.3 0.00 0.00 0.00 67 1012.6
20260504110306 61 183 3.5 8.7 0.00 0.00 0.00 79 1012.6
20260504100134 62 169 2.6 6.1 0.00 0.00 0.00 76 1012.8
20260504080459 61 173 2.6 4.3 0.00 0.00 0.00 72 1013.6
20260504070334 62 182 3.5 7.8 0.00 0.00 0.00 69 1014.2
20260504045950 63 177 2.6 5.2 0.00 0.00 0.00 67 1015.5
20260504044939 63 183 3.5 5.2 0.00 0.00 0.00 67 1015.6
20260504043947 63 178 2.6 5.2 0.00 0.00 0.00 66 1015.6
20260504042929 63 181 2.6 6.1 0.00 0.00 0.00 65 1015.6
20260504041927 64 184 2.6 6.1 0.00 0.00 0.00 64 1015.6
20260504035834 64 180 2.6 6.1 0.00 0.00 0.00 63 1015.6
20260504034843 64 180 2.6 6.1 0.00 0.00 0.00 62 1015.7